Weather History for KTUP - August, 2014

Change the Weather History Date:

Saturday, August 23, 2014

  Actual Average Record
Temperature  
Mean Temperature 85 °F 80 °F  
Max Temperature 97 °F 91 °F 102 °F (2007)
Min Temperature 73 °F 70 °F 54 °F (1973)
Degree Days  
Heating Degree Days 0 0  
Month to date heating degree days 0 0  
Since 1 June heating degree days 0 0  
Since 1 July heating degree days 0 0  
Cooling Degree Days 20 15  
Month to date cooling degree days 353 371  
Year to date cooling degree days 1412 1553  
Since 1 June cooling degree days 1138 1276  
Growing Degree Days 35 (Base 50)    
Moisture  
Dew Point 71 °F    
Average Humidity 67    
Maximum Humidity 93    
Minimum Humidity 40    
Precipitation  
Precipitation 0.00 in 0.10 in 1.94 in (1958)
Month to date precipitation 0.48 2.71  
Year to date precipitation 35.05 35.73  
Snow  
Snow 0.00 in 0.00 in - ()
Month to date snowfall 0.0 0.0  
Since 1 June snowfall 0.0 0.0  
Since 1 July snowfall 0.0 0.0  
Snow Depth 0.00 in    
Sea Level Pressure  
Sea Level Pressure 29.97 in    
Wind  
Wind Speed 4 mph (WNW)    
Max Wind Speed 10 mph    
Max Gust Speed 14 mph    
Visibility 10 miles    
Events      
T = Trace of Precipitation, MM = Missing Value Source: NWS Daily Summary

Daily Weather History Graph

Daily Weather History Graph

Search for Another Location

Airport or City:

Trip Planner

Search our weather history database for the weather conditions in past years. The results will help you decide how hot, cold, wet, or windy it might be!

Date:

Astronomy

Aug. 23, 2014 Rise Set
Actual Time 6:22 AM CDT 7:32 PM CDT
Civil Twilight 5:56 AM CDT 7:58 PM CDT
Nautical Twilight 5:24 AM CDT 8:29 PM CDT
Astronomical Twilight 4:52 AM CDT 9:01 PM CDT
Moon 4:39 AM CDT 6:16 PM CDT
Length of Visible Light 14h 02m
Length of Day
13h 10m
Waning Crescent, 3% of the Moon is Illuminated
Aug 23
Waning Crescent
Aug 25
New
Sep 2
First Quarter
Sep 8
Full
Sep 15
Last Quarter

Hourly Weather History & Observations

Time (CDT) Temp. Heat Index Dew Point Humidity Pressure Visibility Wind Dir Wind Speed Gust Speed Precip Events Conditions
12:53 AM 77.0 °F - 73.0 °F 88% 29.99 in 10.0 mi Calm Calm - N/A   Clear
1:53 AM 78.1 °F - 71.1 °F 79% 29.98 in 10.0 mi WNW 3.5 mph - N/A   Clear
2:53 AM 75.0 °F - 71.1 °F 87% 29.99 in 10.0 mi SSW 3.5 mph - N/A   Clear
3:53 AM 75.0 °F - 71.1 °F 87% 29.99 in 10.0 mi Calm Calm - N/A   Clear
4:53 AM 73.9 °F - 70.0 °F 87% 29.99 in 10.0 mi Calm Calm - N/A   Clear
5:53 AM 73.9 °F - 70.0 °F 87% 30.01 in 10.0 mi SSW 3.5 mph - N/A   Clear
6:53 AM 73.9 °F - 71.1 °F 91% 30.02 in 10.0 mi Calm Calm - N/A   Clear
7:53 AM 78.1 °F - 71.1 °F 79% 30.03 in 10.0 mi WSW 3.5 mph - N/A   Clear
8:53 AM 84.0 °F 89.6 °F 72.0 °F 67% 30.03 in 10.0 mi Variable 3.5 mph - N/A   Clear
9:53 AM 87.8 °F 93.8 °F 71.6 °F 58% 30.04 in 10.0 mi North 6.9 mph - N/A   Clear
10:53 AM 90.0 °F 96.9 °F 72.0 °F 55% 30.02 in 10.0 mi Variable 3.5 mph - N/A   Clear
11:53 AM 91.9 °F 99.5 °F 72.0 °F 52% 30.01 in 10.0 mi NW 8.1 mph - N/A   Partly Cloudy
12:53 PM 93.0 °F 100.7 °F 72.0 °F 50% 29.99 in 10.0 mi NNW 6.9 mph - N/A   Partly Cloudy
1:53 PM 95.0 °F 101.3 °F 70.0 °F 44% 29.98 in 10.0 mi North 8.1 mph - N/A   Partly Cloudy
2:53 PM 95.0 °F 99.5 °F 68.0 °F 41% 29.96 in 10.0 mi Variable 6.9 mph - N/A   Partly Cloudy
3:53 PM 96.8 °F 101.8 °F 68.0 °F 39% 29.95 in 10.0 mi WNW 8.1 mph - N/A   Partly Cloudy
4:53 PM 95.0 °F 99.5 °F 68.0 °F 41% 29.92 in 10.0 mi Variable 5.8 mph - N/A   Clear
5:53 PM 93.9 °F 99.1 °F 69.1 °F 44% 29.91 in 10.0 mi Variable 4.6 mph - N/A   Clear
6:53 PM 91.9 °F 96.9 °F 69.1 °F 47% 29.91 in 10.0 mi West 3.5 mph - N/A   Clear
7:53 PM 87.1 °F 92.8 °F 71.1 °F 59% 29.92 in 10.0 mi Calm Calm - N/A   Clear
8:53 PM 84.0 °F 91.2 °F 73.9 °F 72% 29.91 in 10.0 mi Calm Calm - N/A   Clear
9:53 PM 82.4 °F 88.2 °F 73.4 °F 74% 29.94 in 10.0 mi Calm Calm - N/A   Clear
10:53 PM 80.1 °F 84.5 °F 73.9 °F 81% 29.94 in 10.0 mi NNE 5.8 mph - N/A   Clear
11:53 PM 81.0 °F 86.2 °F 73.9 °F 79% 29.94 in 10.0 mi Calm Calm - N/A   Clear